Weather History for Shawnee, OK

Change the Weather History Date:

Sunday, January 13, 2013

  Actual Average (KTIK) Record (KTIK)
Temperature  
Mean Temperature 28 °F -  
Max Temperature 33 °F 46 °F 57 °F (2002)
Min Temperature 23 °F 27 °F 11 °F (2011)
Degree Days  
Heating Degree Days 37    
Moisture  
Dew Point 22 °F    
Average Humidity 77    
Maximum Humidity 93    
Minimum Humidity 60    
Precipitation  
Precipitation 0.03 in - - ()
Sea Level Pressure  
Sea Level Pressure 30.24 in    
Wind  
Wind Speed 10 mph (North)    
Max Wind Speed 18 mph    
Max Gust Speed 22 mph    
Visibility 10 miles    
Events      
Averages and records for this station are not official NWS values.
T = Trace of Precipitation, MM = Missing Value Source: NWS Daily Summary

Daily Weather History Graph

Daily Weather History Graph

Search for Another Location

Airport:

Trip Planner

Search our weather history database for the weather conditions in past years. The results will help you decide how hot, cold, wet, or windy it might be!

Date:

Astronomy

Jan. 13, 2013 Rise Set
Actual Time 7:36 AM CST 5:36 PM CST
Civil Twilight 7:08 AM CST 6:04 PM CST
Nautical Twilight 6:37 AM CST 6:36 PM CST
Astronomical Twilight 6:06 AM CST 7:06 PM CST
Moon 8:41 AM CST (1/13) 8:09 PM CST (1/13)
Length of Visible Light 10h 55m
Length of Day
10h 00m
Waxing Crescent, 5% of the Moon is Illuminated
Jan 13
Waxing Crescent
Jan 18
First Quarter
Jan 26
Full
Feb 3
Last Quarter
Feb 10
New

Hourly Weather History & Observations

Time (CST) Temp. Windchill Dew Point Humidity Pressure Visibility Wind Dir Wind Speed Gust Speed Precip Events Conditions
12:15 AM 30.2 °F 21.9 °F 28.4 °F 93% 30.04 in 10.0 mi North 9.2 mph - N/A   Scattered Clouds
12:35 AM 30.2 °F 20.8 °F 28.4 °F 93% 30.02 in 10.0 mi NNE 11.5 mph 16.1 mph N/A   Mostly Cloudy
12:55 AM 30.2 °F 20.8 °F 28.4 °F 93% 30.00 in 10.0 mi North 11.5 mph - N/A   Mostly Cloudy
1:15 AM 30.2 °F 22.6 °F 28.4 °F 93% 30.06 in 10.0 mi North 8.1 mph - 0.01 in   Mostly Cloudy
1:35 AM 30.2 °F 21.9 °F 28.4 °F 93% 30.09 in 10.0 mi North 9.2 mph - 0.01 in   Mostly Cloudy
1:55 AM 30.2 °F 21.9 °F 28.4 °F 93% 30.11 in 10.0 mi North 9.2 mph - 0.01 in   Mostly Cloudy
2:15 AM 30.2 °F 21.9 °F 26.6 °F 86% 30.12 in 10.0 mi NNW 9.2 mph - N/A   Scattered Clouds
2:35 AM 30.2 °F 21.3 °F 26.6 °F 86% 30.10 in 10.0 mi North 10.4 mph - 0.01 in   Scattered Clouds
3:15 AM 30.2 °F 21.3 °F 26.6 °F 86% 30.12 in 10.0 mi North 10.4 mph 16.1 mph 0.01 in   Scattered Clouds
3:35 AM 30.2 °F 20.8 °F 26.6 °F 86% 30.12 in 10.0 mi North 11.5 mph - 0.01 in   Scattered Clouds
3:55 AM 28.4 °F 19.7 °F 26.6 °F 93% 30.14 in 10.0 mi North 9.2 mph - 0.01 in   Clear
4:15 AM 28.4 °F 19.7 °F 24.8 °F 86% 30.14 in 10.0 mi NNW 9.2 mph - N/A   Scattered Clouds
4:35 AM 28.4 °F 19.1 °F 24.8 °F 86% 30.14 in 10.0 mi North 10.4 mph - N/A   Mostly Cloudy
4:55 AM 26.6 °F 15.7 °F 23.0 °F 86% 30.13 in 10.0 mi North 12.7 mph - N/A   Mostly Cloudy
5:15 AM 26.6 °F 15.7 °F 23.0 °F 86% 30.14 in 10.0 mi North 12.7 mph - N/A   Scattered Clouds
5:35 AM 26.6 °F 14.7 °F 21.2 °F 80% 30.15 in 10.0 mi North 15.0 mph 19.6 mph N/A   Scattered Clouds
6:15 AM 24.8 °F 14.6 °F 21.2 °F 86% 30.16 in 10.0 mi North 10.4 mph - N/A   Clear
6:35 AM 24.8 °F 15.3 °F 21.2 °F 86% 30.18 in 10.0 mi North 9.2 mph - N/A   Clear
6:55 AM 24.8 °F 12.9 °F 19.4 °F 80% 30.18 in 10.0 mi North 13.8 mph - N/A   Clear
7:15 AM 24.8 °F 14.0 °F 19.4 °F 80% 30.20 in 10.0 mi North 11.5 mph - N/A   Clear
7:35 AM 23.0 °F 11.1 °F 19.4 °F 86% 30.21 in 10.0 mi North 12.7 mph - N/A   Clear
7:55 AM 23.0 °F 12.4 °F 19.4 °F 86% 30.23 in 10.0 mi North 10.4 mph - N/A   Clear
8:15 AM 24.8 °F 15.3 °F 21.2 °F 86% 30.25 in 10.0 mi North 9.2 mph - N/A   Clear
8:35 AM 24.8 °F 14.6 °F 21.2 °F 86% 30.26 in 10.0 mi North 10.4 mph - N/A   Clear
8:55 AM 26.6 °F 17.5 °F 21.2 °F 80% 30.28 in 10.0 mi North 9.2 mph 16.1 mph N/A   Clear
9:15 AM 26.6 °F 15.7 °F 19.4 °F 74% 30.29 in 10.0 mi North 12.7 mph 18.4 mph N/A   Clear
9:35 AM 26.6 °F 16.8 °F 21.2 °F 80% 30.30 in 10.0 mi North 10.4 mph - N/A   Clear
9:55 AM 26.6 °F 15.7 °F 21.2 °F 80% 30.31 in 10.0 mi North 12.7 mph - N/A   Clear
10:15 AM 28.4 °F 17.5 °F 23.0 °F 80% 30.31 in 10.0 mi North 13.8 mph - N/A   Clear
10:55 AM 28.4 °F 17.0 °F 23.0 °F 80% 30.31 in 10.0 mi NNW 15.0 mph - N/A   Clear
11:35 AM 30.2 °F 18.1 °F 23.0 °F 75% 30.30 in 10.0 mi NNW 18.4 mph - N/A   Clear
11:55 AM 30.2 °F 20.2 °F 23.0 °F 75% 30.29 in 10.0 mi North 12.7 mph 19.6 mph N/A   Clear
12:15 PM 30.2 °F 19.3 °F 23.0 °F 75% 30.28 in 10.0 mi North 15.0 mph 20.7 mph N/A   Clear
12:35 PM 32.0 °F 20.8 °F 23.0 °F 69% 30.27 in 10.0 mi NNW 17.3 mph 21.9 mph N/A   Clear
12:55 PM 32.0 °F 22.1 °F 23.0 °F 69% 30.26 in 10.0 mi North 13.8 mph - N/A   Clear
1:15 PM 32.0 °F 21.6 °F 23.0 °F 69% 30.25 in 10.0 mi North 15.0 mph - N/A   Clear
1:35 PM 32.0 °F 21.6 °F 23.0 °F 69% 30.25 in 10.0 mi North 15.0 mph 19.6 mph N/A   Clear
1:55 PM 32.0 °F 22.1 °F 23.0 °F 69% 30.25 in 10.0 mi North 13.8 mph - N/A   Clear
2:35 PM 33.8 °F 25.3 °F 23.0 °F 65% 30.25 in 10.0 mi NNE 11.5 mph 16.1 mph N/A   Clear
2:55 PM 33.8 °F 24.3 °F 23.0 °F 65% 30.25 in 10.0 mi North 13.8 mph - N/A   Clear
3:15 PM 33.8 °F 24.8 °F 23.0 °F 65% 30.25 in 10.0 mi North 12.7 mph 17.3 mph N/A   Clear
3:35 PM 33.8 °F 24.3 °F 21.2 °F 60% 30.25 in 10.0 mi North 13.8 mph - N/A   Clear
3:55 PM 33.8 °F 25.8 °F 21.2 °F 60% 30.26 in 10.0 mi NNE 10.4 mph - N/A   Clear
4:15 PM 33.8 °F 27.0 °F 21.2 °F 60% 30.26 in 10.0 mi North 8.1 mph - N/A   Clear
4:35 PM 33.8 °F 25.8 °F 21.2 °F 60% 30.26 in 10.0 mi North 10.4 mph - N/A   Clear
4:55 PM 33.8 °F 25.8 °F 21.2 °F 60% 30.27 in 10.0 mi North 10.4 mph - N/A   Clear
5:15 PM 33.8 °F 27.0 °F 21.2 °F 60% 30.28 in 10.0 mi North 8.1 mph - N/A   Clear
5:35 PM 32.0 °F 26.4 °F 21.2 °F 64% 30.29 in 10.0 mi North 5.8 mph - N/A   Clear
5:55 PM 32.0 °F 25.6 °F 21.2 °F 64% 30.29 in 10.0 mi North 6.9 mph - N/A   Clear
6:15 PM 30.2 °F 24.3 °F 21.2 °F 69% 30.29 in 10.0 mi North 5.8 mph - N/A   Clear
6:35 PM 30.2 °F 25.4 °F 23.0 °F 75% 30.30 in 10.0 mi North 4.6 mph - N/A   Clear
6:55 PM 28.4 °F 22.2 °F 21.2 °F 74% 30.31 in 10.0 mi NNW 5.8 mph - N/A   Clear
7:15 PM 28.4 °F 22.2 °F 21.2 °F 74% 30.30 in 10.0 mi North 5.8 mph - N/A   Clear
7:35 PM 30.2 °F 23.4 °F 21.2 °F 69% 30.29 in 10.0 mi North 6.9 mph - N/A   Clear
7:55 PM 28.4 °F 20.4 °F 19.4 °F 69% 30.29 in 10.0 mi North 8.1 mph - N/A   Clear
8:15 PM 28.4 °F 19.7 °F 21.2 °F 74% 30.29 in 10.0 mi North 9.2 mph - N/A   Clear
8:35 PM 30.2 °F 22.6 °F 21.2 °F 69% 30.29 in 10.0 mi North 8.1 mph - N/A   Clear
8:55 PM 28.4 °F 21.2 °F 21.2 °F 74% 30.30 in 10.0 mi North 6.9 mph - N/A   Clear
9:15 PM 28.4 °F 21.2 °F 19.4 °F 69% 30.30 in 10.0 mi NNE 6.9 mph - N/A   Clear
9:35 PM 28.4 °F 23.3 °F 19.4 °F 69% 30.30 in 10.0 mi NNE 4.6 mph - N/A   Clear
9:55 PM 26.6 °F 21.2 °F 19.4 °F 74% 30.31 in 10.0 mi NNE 4.6 mph - N/A   Clear
10:35 PM 26.6 °F 22.6 °F 19.4 °F 74% 30.33 in 10.0 mi NNE 3.5 mph - N/A   Clear
10:55 PM 26.6 °F - 19.4 °F 74% 30.35 in 10.0 mi Calm Calm - N/A   Clear
11:15 PM 26.6 °F 22.6 °F 19.4 °F 74% 30.36 in 10.0 mi North 3.5 mph - N/A   Clear
11:35 PM 26.6 °F 22.6 °F 19.4 °F 74% 30.38 in 10.0 mi NNE 3.5 mph - N/A   Clear
11:55 PM 26.6 °F - 19.4 °F 74% 30.38 in 10.0 mi Calm Calm - N/A   Clear